Flag for U.S.A. Weather past 2 weeks in Louisville, Kentucky, U.S.A.

Now
52 °F

Clear.


Feels Like: 52 °F
Forecast: 48 / 72 °F
Wind: 3 mph from Southeast

Location: Standiford Field

Current Time: Sep 23, 2014 at 3:13:54 AM

Latest Report: Sep 23, 2014 at 2:56 AM


Visibility: 10 mi

Pressure: 30.27 "Hg

Humidity: 80%

Dew point: 46 °F

Location of LouisvilleLocation

Historic Weather in Louisville — Graph

°F

Louisville temperature yesterday

Maximum temperature yesterday: 69 °F (at 4:56 PM)
Minimum temperature yesterday: 55 °F (at 6:56 AM)
Average temperature yesterday: 61 °F

Past Weeks' High & Low Weather Summary

 TemperatureHumidityPressure
High85 °F (Sep 8, 5:56 PM)93% (Sep 11, 1:56 AM)30.30 "Hg (Sep 11, 1:56 AM)
Low50 °F (Sep 14, 6:56 AM)31% (Sep 21, 3:56 PM)29.78 "Hg (Sep 10, 7:56 PM)
Average67 °F68%30.07 "Hg
* Reported Sep 8 1:56 AM — Sep 23 1:56 AM, Louisville, Weather by CustomWeather, © 2014

Note: Actual official high and low records may vary slightly from our data, if they occured in-between our weather recording intervals... More about our weather records

Advertising

Louisville weather history for previous 24 hours

 ConditionsComfort  
Time TempWeatherWind HumidityBarometerVisibility
1:56 AM
Sep 23
53 °FClear.3 mph80%30.27 "Hg10 mi
12:56 AM56 °FClear.No wind75%30.27 "Hg10 mi
11:56 PM
Sep 22
57 °FClear.No wind69%30.26 "Hg10 mi
10:56 PM59 °FClear.3 mph62%30.25 "Hg10 mi
9:56 PM60 °FClear.6 mph58%30.24 "Hg10 mi
8:56 PM61 °FClear.7 mph56%30.23 "Hg10 mi
7:56 PM63 °FSunny.7 mph50%30.21 "Hg10 mi
6:56 PM67 °FSunny.13 mph42%30.21 "Hg10 mi
5:56 PM68 °FSunny.9 mph40%30.20 "Hg10 mi
4:56 PM69 °FSunny.10 mph39%30.20 "Hg10 mi
3:56 PM68 °FSunny.8 mph44%30.21 "Hg10 mi
2:56 PM67 °FPassing clouds.12 mph44%30.21 "Hg10 mi
1:56 PM65 °FSunny.9 mph47%30.23 "Hg10 mi
12:56 PM63 °FPassing clouds.10 mph52%30.25 "Hg10 mi
11:56 AM61 °FPassing clouds.9 mph56%30.24 "Hg10 mi
10:56 AM59 °FPassing clouds.13 mph58%30.25 "Hg10 mi
9:56 AM58 °FPassing clouds.12 mph60%30.23 "Hg10 mi
8:56 AM56 °FPassing clouds.10 mph72%30.21 "Hg10 mi
7:56 AM55 °FClear.7 mph80%30.19 "Hg10 mi
6:56 AM55 °FPassing clouds.6 mph80%30.16 "Hg10 mi
5:56 AM58 °FOvercast.7 mph72%30.14 "Hg10 mi
4:56 AM57 °FPassing clouds.7 mph78%30.11 "Hg10 mi
3:56 AM57 °FClear.6 mph78%30.09 "Hg10 mi
Weather by CustomWeather, © 2014

See weather overviewHow to use our weather pages